カタログに戻る

FREGAT DEB

LostUNKNOWN
NORAD 45944·DEBRIS·🇷🇺 Russia

打ち上げ Jul 18, 2011 から Baikonur Cosmodrome

Loading…

次のパス (今後24時間)

TLE

古いSource: Space-Track

元期: Jul 22, 2026, 16:12 UTC

1 45944U 11037EZ  26203.67555070  .00013742  00000-0  50736-1 0  9995
2 45944  51.1500 327.6767 2256454 228.9208 109.3829  9.71739713209153

AllMySatでFREGAT DEBをリアルタイム追跡

Download on the App Store